Location: Betpouey
(42.8833°N, 0.0333°E)
Time: 07:26:17
(UTC+00:00)

USA 281 - Pass Details

Date: 01 December 2020
Orbit: 1074 x 1084 km, 106.0° (Epoch: 08 January)

Event Time Altitude Azimuth Distance (km) Brightness Sun altitude
Rises 17:20:07 0° 114° (ESE) 3,875 5.7 -9.7°
Reaches altitude 10° 17:23:03 10° 102° (ESE) 2,920 5.0 -10.2°
Maximum altitude 17:28:14 26° 49° (NE) 1,998 4.1 -11.1°
Drops below altitude 10° 17:33:25 10° 357° (N) 2,926 5.3 -12.0°
Sets 17:36:21 0° 345° (NNW) 3,883 6.1 -12.5°
